| time (UTC) | temp C | wind direction | speed KPH | gust KPH | rain 1hr cm | rain 24hr cm | rain mn cm | humidity % | barometer mb |
| 20260507215340 | 0 | 314 | 4.8 | 8.0 | 0.00 | 0.00 | 0.00 | 59 | 1021.1 |
| 20260507214815 | 0 | 314 | 4.8 | 6.4 | 0.00 | 0.00 | 0.00 | 58 | 1021.1 |
| 20260507213338 | 0 | 324 | 3.2 | 6.4 | 0.00 | 0.00 | 0.00 | 58 | 1021.1 |
| 20260507212814 | 1 | 310 | 3.2 | 4.8 | 0.00 | 0.00 | 0.00 | 56 | 1020.8 |
| 20260507211338 | 1 | 310 | 4.8 | 6.4 | 0.00 | 0.00 | 0.00 | 55 | 1020.5 |
| 20260507210337 | 1 | 310 | 3.2 | 6.4 | 0.00 | 0.00 | 0.00 | 55 | 1020.3 |
| 20260507205336 | 2 | 317 | 3.2 | 6.4 | 0.00 | 0.00 | 0.00 | 55 | 1020.2 |
| 20260507204819 | 2 | 327 | 3.2 | 6.4 | 0.00 | 0.00 | 0.00 | 54 | 1020.1 |
| 20260507203335 | 2 | 310 | 4.8 | 6.4 | 0.00 | 0.00 | 0.00 | 52 | 1020.1 |
| 20260507202334 | 3 | 310 | 4.8 | 6.4 | 0.00 | 0.00 | 0.00 | 50 | 1019.9 |
| 20260507201334 | 3 | 286 | 3.2 | 8.0 | 0.00 | 0.00 | 0.00 | 51 | 1019.7 |
| 20260507200336 | 4 | 305 | 4.8 | 6.4 | 0.00 | 0.00 | 0.00 | 47 | 1019.5 |
| 20260507195334 | 5 | 310 | 6.4 | 11.3 | 0.00 | 0.00 | 0.00 | 45 | 1019.5 |
| 20260507194334 | 5 | 326 | 4.8 | 8.0 | 0.00 | 0.00 | 0.00 | 42 | 1019.3 |
| 20260507193334 | 6 | 332 | 3.2 | 6.4 | 0.00 | 0.00 | 0.00 | 40 | 1019.2 |
| 20260507192334 | 7 | 314 | 3.2 | 4.8 | 0.00 | 0.00 | 0.00 | 40 | 1019.1 |
| 20260507191334 | 8 | 314 | 3.2 | 4.8 | 0.00 | 0.00 | 0.00 | 40 | 1019.0 |
| 20260507190334 | 9 | 314 | 4.8 | 6.4 | 0.00 | 0.00 | 0.00 | 35 | 1018.9 |
| 20260507185334 | 10 | 316 | 4.8 | 6.4 | 0.00 | 0.00 | 0.00 | 33 | 1018.8 |
| 20260507184334 | 11 | 316 | 3.2 | 4.8 | 0.00 | 0.00 | 0.00 | 31 | 1018.7 |
| 20260507183334 | 11 | 316 | 3.2 | 4.8 | 0.00 | 0.00 | 0.00 | 30 | 1018.5 |
| 20260507182821 | 11 | 316 | 3.2 | 6.4 | 0.00 | 0.00 | 0.00 | 30 | 1018.5 |
| 20260507181334 | 11 | 316 | 4.8 | 6.4 | 0.00 | 0.00 | 0.00 | 25 | 1018.4 |
| 20260507180821 | 11 | 318 | 4.8 | 6.4 | 0.00 | 0.00 | 0.00 | 24 | 1018.3 |
| 20260507175334 | 11 | 310 | 6.4 | 8.0 | 0.00 | 0.00 | 0.00 | 22 | 1018.1 |
| 20260507174334 | 11 | 300 | 6.4 | 9.7 | 0.00 | 0.00 | 0.00 | 21 | 1018.0 |
| 20260507173817 | 12 | 352 | 6.4 | 12.9 | 0.00 | 0.00 | 0.00 | 21 | 1017.9 |
| 20260507172337 | 12 | 317 | 4.8 | 11.3 | 0.00 | 0.00 | 0.00 | 20 | 1017.8 |
| 20260507172249 | 12 | 342 | 6.4 | 12.9 | 0.00 | 0.00 | 0.00 | 19 | 1017.7 |
| 20260507170337 | 12 | 300 | 6.4 | 14.5 | 0.00 | 0.00 | 0.00 | 20 | 1017.7 |
| 20260507165334 | 12 | 351 | 6.4 | 14.5 | 0.00 | 0.00 | 0.00 | 18 | 1017.6 |
| 20260507164331 | 12 | 305 | 8.0 | 14.5 | 0.00 | 0.00 | 0.00 | 18 | 1017.4 |
| 20260507163331 | 12 | 293 | 11.3 | 19.3 | 0.00 | 0.00 | 0.00 | 19 | 1017.4 |
| 20260507162321 | 12 | 268 | 4.8 | 14.5 | 0.00 | 0.00 | 0.00 | 18 | 1017.3 |
| 20260507161319 | 12 | 325 | 9.7 | 20.9 | 0.00 | 0.00 | 0.00 | 22 | 1017.3 |
| 20260507160313 | 11 | 317 | 11.3 | 17.7 | 0.00 | 0.00 | 0.00 | 21 | 1017.2 |
| 20260507155315 | 12 | 282 | 11.3 | 20.9 | 0.00 | 0.00 | 0.00 | 18 | 1017.2 |
| 20260507154314 | 12 | 278 | 12.9 | 20.9 | 0.00 | 0.00 | 0.00 | 19 | 1017.1 |
| 20260507153314 | 13 | 349 | 9.7 | 19.3 | 0.00 | 0.00 | 0.00 | 17 | 1017.2 |
| 20260507152313 | 13 | 337 | 11.3 | 19.3 | 0.00 | 0.00 | 0.00 | 15 | 1017.1 |
| 20260507151313 | 13 | 300 | 4.8 | 12.9 | 0.00 | 0.00 | 0.00 | 15 | 1017.0 |
| 20260507150315 | 13 | 188 | 8.0 | 19.3 | 0.00 | 0.00 | 0.00 | 15 | 1016.9 |
| 20260507145313 | 12 | 226 | 11.3 | 20.9 | 0.00 | 0.00 | 0.00 | 15 | 1017.0 |
| 20260507144801 | 13 | 295 | 12.9 | 25.7 | 0.00 | 0.00 | 0.00 | 17 | 1016.9 |
| 20260507143743 | 13 | 322 | 6.4 | 19.3 | 0.00 | 0.00 | 0.00 | 16 | 1016.8 |
| 20260507142307 | 13 | 247 | 8.0 | 19.3 | 0.00 | 0.00 | 0.00 | 16 | 1016.8 |
| 20260507141747 | 13 | 291 | 8.0 | 19.3 | 0.00 | 0.00 | 0.00 | 13 | 1016.7 |
| 20260507140308 | 12 | 263 | 11.3 | 24.1 | 0.00 | 0.00 | 0.00 | 15 | 1016.8 |
| 20260507135307 | 13 | 270 | 9.7 | 25.7 | 0.00 | 0.00 | 0.00 | 16 | 1016.7 |
| 20260507134744 | 13 | 221 | 8.0 | 17.7 | 0.00 | 0.00 | 0.00 | 17 | 1016.7 |
| 20260507133307 | 13 | 300 | 11.3 | 20.9 | 0.00 | 0.00 | 0.00 | 19 | 1016.8 |
| 20260507132309 | 12 | 235 | 11.3 | 24.1 | 0.00 | 0.00 | 0.00 | 21 | 1016.7 |
| 20260507131745 | 13 | 317 | 8.0 | 19.3 | 0.00 | 0.00 | 0.00 | 19 | 1016.6 |
| 20260507130307 | 11 | 274 | 14.5 | 24.1 | 0.00 | 0.00 | 0.00 | 20 | 1016.6 |
| 20260507125307 | 12 | 293 | 6.4 | 20.9 | 0.00 | 0.00 | 0.00 | 19 | 1016.5 |
| 20260507124307 | 12 | 257 | 11.3 | 20.9 | 0.00 | 0.00 | 0.00 | 14 | 1016.5 |
| 20260507123308 | 12 | 258 | 6.4 | 22.5 | 0.00 | 0.00 | 0.00 | 18 | 1016.5 |
| 20260507122308 | 12 | 345 | 12.9 | 22.5 | 0.00 | 0.00 | 0.00 | 17 | 1016.4 |
| 20260507121307 | 12 | 305 | 14.5 | 24.1 | 0.00 | 0.00 | 0.00 | 19 | 1016.4 |
| 20260507120308 | 13 | 290 | 6.4 | 25.7 | 0.00 | 0.00 | 0.00 | 19 | 1016.3 |
| 20260507120216 | 12 | 83 | 12.9 | 29.0 | 0.00 | 0.00 | 0.00 | 19 | 1016.5 |
| 20260507114304 | 12 | 305 | 14.5 | 25.7 | 0.00 | 0.00 | 0.00 | 19 | 1016.3 |
| 20260507114216 | 12 | 236 | 4.8 | 14.5 | 0.00 | 0.00 | 0.00 | 21 | 1016.3 |
| 20260507112307 | 12 | 212 | 9.7 | 17.7 | 0.00 | 0.00 | 0.00 | 16 | 1016.3 |
| 20260507111744 | 12 | 268 | 9.7 | 19.3 | 0.00 | 0.00 | 0.00 | 18 | 1016.4 |
| 20260507110312 | 12 | 192 | 14.5 | 25.7 | 0.00 | 0.00 | 0.00 | 16 | 1016.2 |
| 20260507105306 | 12 | 271 | 9.7 | 33.8 | 0.00 | 0.00 | 0.00 | 16 | 1016.0 |
| 20260507104303 | 12 | 270 | 8.0 | 24.1 | 0.00 | 0.00 | 0.00 | 17 | 1016.2 |
| 20260507103305 | 11 | 290 | 9.7 | 17.7 | 0.00 | 0.00 | 0.00 | 18 | 1016.2 |
| 20260507102307 | 11 | 327 | 16.1 | 24.1 | 0.00 | 0.00 | 0.00 | 22 | 1016.0 |
| 20260507101303 | 12 | 248 | 8.0 | 22.5 | 0.00 | 0.00 | 0.00 | 21 | 1016.0 |
| 20260507100741 | 12 | 289 | 11.3 | 27.4 | 0.00 | 0.00 | 0.00 | 21 | 1015.9 |
| 20260507095306 | 10 | 300 | 11.3 | 24.1 | 0.00 | 0.00 | 0.00 | 23 | 1015.9 |
| 20260507094303 | 11 | 226 | 4.8 | 14.5 | 0.00 | 0.00 | 0.00 | 23 | 1015.9 |
| 20260507093301 | 11 | 300 | 8.0 | 19.3 | 0.00 | 0.00 | 0.00 | 20 | 1015.9 |
| 20260507092302 | 11 | 316 | 11.3 | 22.5 | 0.00 | 0.00 | 0.00 | 24 | 1015.9 |
| 20260507091301 | 10 | 249 | 9.7 | 19.3 | 0.00 | 0.00 | 0.00 | 24 | 1016.0 |
| 20260507090301 | 10 | 276 | 12.9 | 24.1 | 0.00 | 0.00 | 0.00 | 25 | 1016.0 |
| 20260507085306 | 10 | 357 | 8.0 | 19.3 | 0.00 | 0.00 | 0.00 | 25 | 1015.9 |
| 20260507084302 | 10 | 300 | 12.9 | 19.3 | 0.00 | 0.00 | 0.00 | 26 | 1015.9 |
| 20260507083734 | 10 | 322 | 12.9 | 20.9 | 0.00 | 0.00 | 0.00 | 30 | 1015.8 |
| 20260507082746 | 10 | 289 | 11.3 | 20.9 | 0.00 | 0.00 | 0.00 | 30 | 1015.7 |
| 20260507081303 | 9 | 343 | 4.8 | 12.9 | 0.00 | 0.00 | 0.00 | 30 | 1015.7 |
| 20260507080301 | 9 | 305 | 8.0 | 16.1 | 0.00 | 0.00 | 0.00 | 32 | 1015.6 |
| 20260507075301 | 9 | 210 | 11.3 | 19.3 | 0.00 | 0.00 | 0.00 | 33 | 1015.4 |
| 20260507074751 | 9 | 339 | 6.4 | 16.1 | 0.00 | 0.00 | 0.00 | 36 | 1015.5 |
| 20260507073302 | 8 | 339 | 6.4 | 14.5 | 0.00 | 0.00 | 0.00 | 38 | 1015.3 |
| 20260507072758 | 8 | 21 | 4.8 | 11.3 | 0.00 | 0.00 | 0.00 | 39 | 1015.3 |
| 20260507071303 | 8 | 345 | 6.4 | 16.1 | 0.00 | 0.00 | 0.00 | 40 | 1015.4 |
| 20260507070301 | 7 | 338 | 8.0 | 17.7 | 0.00 | 0.00 | 0.00 | 42 | 1015.3 |
| 20260507065305 | 7 | 337 | 4.8 | 9.7 | 0.00 | 0.00 | 0.00 | 48 | 1015.2 |
| 20260507064302 | 6 | 310 | 6.4 | 12.9 | 0.00 | 0.00 | 0.00 | 48 | 1015.3 |
| 20260507063302 | 5 | 328 | 4.8 | 8.0 | 0.00 | 0.00 | 0.00 | 54 | 1015.2 |
| 20260507062301 | 4 | 314 | 1.6 | 6.4 | 0.00 | 0.00 | 0.00 | 55 | 1015.1 |
| 20260507061302 | 3 | 322 | 4.8 | 11.3 | 0.00 | 0.00 | 0.00 | 57 | 1015.2 |
| 20260507060745 | 3 | 354 | 3.2 | 9.7 | 0.00 | 0.00 | 0.00 | 59 | 1015.1 |
| 20260507055301 | 2 | 327 | 4.8 | 6.4 | 0.00 | 0.00 | 0.00 | 60 | 1015.1 |
| 20260507054743 | 2 | 310 | 4.8 | 8.0 | 0.00 | 0.00 | 0.00 | 60 | 1014.9 |
| 20260507053301 | 2 | 293 | 6.4 | 9.7 | 0.00 | 0.00 | 0.00 | 61 | 1014.9 |
| 20260507052305 | 1 | 300 | 8.0 | 12.9 | 0.00 | 0.00 | 0.00 | 63 | 1014.9 |
| 20260507051301 | 1 | 300 | 9.7 | 16.1 | 0.00 | 0.00 | 0.00 | 63 | 1014.8 |
| 20260507050301 | 1 | 315 | 12.9 | 16.1 | 0.00 | 0.00 | 0.00 | 64 | 1014.8 |
| 20260507045301 | 0 | 321 | 11.3 | 17.7 | 0.00 | 0.00 | 0.00 | 64 | 1014.8 |
| 20260507044301 | 0 | 305 | 8.0 | 12.9 | 0.00 | 0.00 | 0.00 | 65 | 1014.8 |
| 20260507043302 | 0 | 329 | 8.0 | 14.5 | 0.00 | 0.00 | 0.00 | 66 | 1014.7 |
| 20260507042301 | 0 | 310 | 8.0 | 14.5 | 0.00 | 0.00 | 0.00 | 68 | 1014.6 |
| 20260507041301 | 0 | 300 | 8.0 | 16.1 | 0.00 | 0.00 | 0.00 | 69 | 1014.6 |
| 20260507040738 | -1 | 295 | 8.0 | 12.9 | 0.00 | 0.00 | 0.00 | 71 | 1014.5 |
| 20260507035301 | -1 | 300 | 9.7 | 16.1 | 0.00 | 0.00 | 0.00 | 73 | 1014.4 |
| 20260507034301 | -2 | 291 | 6.4 | 12.9 | 0.00 | 0.00 | 0.00 | 75 | 1014.4 |